Home > Weather > Clarksville > Past weeks

Flag for USA Past Weather in Clarksville, Tennessee, USA — Yesterday and Last 2 Weeks

Now
91 °F

Sunny.


Feels Like: 98 °F
Forecast: 75 / 93 °F
Wind: 5 mph from North

Location: Outlaw Field

Current Time: Jul 26, 2016 at 5:03:52 PM

Latest Report: Jul 26, 2016 at 3:52 PM


Visibility: 10 mi

Pressure: 29.94 "Hg

Humidity: 52%

Dew Point: 71 °F

Location of ClarksvilleLocation

Past Weather in Clarksville — Graph

°F

Clarksville Temperature Yesterday

Maximum temperature yesterday: 92 °F (at 1:52 PM)
Minimum temperature yesterday: 73 °F (at 10:52 PM)
Average temperature yesterday: 82 °F

High & Low Weather Summary for the Past Weeks

 TemperatureHumidityPressure
High92 °F (Jul 18, 1:52 PM)97% (Jul 15, 4:52 AM)30.22 "Hg (Jul 15, 4:52 AM)
Low69 °F (Jul 14, 10:52 PM)46% (Jul 15, 5:52 PM)29.89 "Hg (Jul 23, 5:52 PM)
Average80 °F77%30.05 "Hg
* Reported Jul 11 2:52 PM — Jul 26 2:52 PM, Clarksville, Weather by CustomWeather, © 2016

Note: Actual official high and low records may vary slightly from our data, if they occured in-between our weather recording intervals... More about our weather records

Advertising

Clarksville Weather History for the Previous 24 Hours

Scroll right to see more
 ConditionsComfort  
Time TempWeatherWind HumidityBarometerVisibility
2:52 PM
Tue, Jul 26
92 °FSunny.No wind49%29.95 "Hg10 mi
1:52 PM91 °FSunny.5 mph54%29.97 "Hg10 mi
12:52 PM90 °FSunny.6 mph57%29.99 "Hg10 mi
11:52 AM89 °FSunny.8 mph63%30.01 "Hg10 mi
10:52 AM88 °FSunny.5 mph65%30.01 "Hg10 mi
9:52 AM85 °FSunny.5 mph75%30.01 "Hg10 mi
8:52 AM81 °FSunny.3 mph82%30.01 "Hg10 mi
7:52 AM77 °FSunny.3 mph88%30.02 "Hg10 mi
6:52 AM73 °FSunny.No wind94%30.02 "Hg8 mi
6:04 AM72 °FFog.No wind93%30.02 "Hg1 mi
5:52 AM72 °FFog.No wind93%30.00 "Hg2 mi
4:52 AM73 °FLight rain. Clear.No wind94%29.99 "Hg7 mi
3:52 AM72 °FClear.No wind97%29.99 "Hg8 mi
2:52 AM73 °FPassing clouds.3 mph94%29.98 "Hg10 mi
1:52 AM73 °FPassing clouds.No wind94%29.98 "Hg10 mi
12:52 AM73 °FClear.No wind94%29.99 "Hg10 mi
11:52 PM
Mon, Jul 25
73 °FClear.No wind94%30.00 "Hg10 mi
10:52 PM73 °FClear.3 mph94%29.99 "Hg10 mi
9:52 PM74 °FClear.3 mph91%29.98 "Hg10 mi
8:52 PM75 °FLight rain. Passing clouds.No wind90%29.96 "Hg10 mi
8:01 PM74 °FThundershowers. Partly cloudy.5 mph91%30.01 "Hg10 mi
6:52 PM81 °FThunderstorms. Broken clouds.20 mph72%29.98 "Hg10 mi
5:52 PM91 °FSunny.6 mph57%29.94 "Hg10 mi
Weather by CustomWeather, © 2016

See weather overviewHow to use our weather pages